TimeCEST,TemperatureF,Dew PointF,Humidity,Sea Level PressureIn,VisibilityMPH,Wind Direction,Wind SpeedMPH,Gust SpeedMPH,PrecipitationIn,Events,Conditions,WindDirDegrees,DateUTC
12:20 AM,60.8,55.4,82,29.98,5.0,Variable,2.3,-,N/A,,Mostly Cloudy,0,2013-04-26 22:20:00
12:50 AM,60.8,55.4,82,29.95,6.2,West,2.3,-,N/A,,Mostly Cloudy,280,2013-04-26 22:50:00
1:20 AM,60.8,55.4,82,29.95,6.2,NNE,3.5,-,N/A,,Scattered Clouds,30,2013-04-26 23:20:00
1:50 AM,60.8,55.4,82,29.92,6.2,Variable,1.2,-,N/A,,Scattered Clouds,0,2013-04-26 23:50:00
2:20 AM,60.8,55.4,82,29.92,6.2,Variable,2.3,-,N/A,,Scattered Clouds,0,2013-04-27 00:20:00
2:50 AM,60.8,57.2,88,29.92,6.2,Variable,2.3,-,N/A,,Scattered Clouds,0,2013-04-27 00:50:00
3:20 AM,60.8,55.4,82,29.89,6.2,North,3.5,-,N/A,,Scattered Clouds,10,2013-04-27 01:20:00
3:50 AM,60.8,57.2,88,29.89,6.2,North,4.6,-,N/A,,Scattered Clouds,10,2013-04-27 01:50:00
4:20 AM,60.8,55.4,82,29.89,6.2,North,3.5,-,N/A,,Partly Cloudy,10,2013-04-27 02:20:00
4:50 AM,60.8,57.2,88,29.86,5.0,Variable,2.3,-,N/A,Rain,Rain,0,2013-04-27 02:50:00
5:20 AM,60.8,55.4,82,29.89,6.2,Variable,2.3,-,N/A,,Light Drizzle,0,2013-04-27 03:20:00
5:50 AM,60.8,57.2,88,29.89,6.2,South,4.6,-,N/A,,Light Drizzle,190,2013-04-27 03:50:00
6:20 AM,60.8,57.2,88,29.86,6.2,Variable,2.3,-,N/A,,Mostly Cloudy,0,2013-04-27 04:20:00
6:50 AM,60.8,55.4,82,29.86,5.0,ENE,4.6,-,N/A,Rain,Light Rain,60,2013-04-27 04:50:00
7:20 AM,60.8,51.8,72,29.83,6.2,NE,8.1,-,N/A,Rain,Light Rain,40,2013-04-27 05:20:00
7:50 AM,60.8,53.6,77,29.86,6.2,West,8.1,-,N/A,Rain,Light Rain,270,2013-04-27 05:50:00
8:20 AM,62.6,55.4,77,29.86,6.2,West,5.8,-,N/A,,Light Drizzle,270,2013-04-27 06:20:00
8:50 AM,60.8,55.4,82,29.89,6.2,SSW,3.5,-,N/A,,Light Drizzle,200,2013-04-27 06:50:00
9:20 AM,59.0,55.4,88,29.89,5.0,ENE,3.5,-,N/A,Rain,Light Rain,70,2013-04-27 07:20:00
9:50 AM,59.0,55.4,88,29.89,5.0,Calm,Calm,-,N/A,Rain,Light Rain,0,2013-04-27 07:50:00
10:20 AM,59.0,55.4,88,29.89,5.0,SSW,4.6,-,N/A,Rain,Light Rain,200,2013-04-27 08:20:00
10:50 AM,59.0,55.4,88,29.89,5.0,SSW,3.5,-,N/A,Rain,Light Rain,200,2013-04-27 08:50:00
11:20 AM,59.0,57.2,94,29.92,2.5,East,3.5,-,N/A,Rain,Light Rain,80,2013-04-27 09:20:00
11:50 AM,59.0,57.2,94,29.89,2.5,ENE,5.8,-,N/A,Rain,Light Rain,60,2013-04-27 09:50:00
12:20 PM,59.0,55.4,88,29.89,2.5,ENE,6.9,-,N/A,Rain,Light Rain,60,2013-04-27 10:20:00
12:50 PM,59.0,55.4,88,29.86,5.0,East,5.8,-,N/A,Rain,Light Rain,80,2013-04-27 10:50:00
1:20 PM,60.8,55.4,82,29.86,5.0,East,5.8,-,N/A,Rain,Light Rain,80,2013-04-27 11:20:00
1:50 PM,62.6,55.4,77,29.86,5.0,ENE,3.5,-,N/A,,Light Drizzle,60,2013-04-27 11:50:00
2:20 PM,62.6,57.2,82,29.86,5.0,NNW,2.3,-,N/A,Rain,Light Rain,330,2013-04-27 12:20:00
2:50 PM,64.4,57.2,77,29.86,5.0,Variable,2.3,-,N/A,,Light Drizzle,0,2013-04-27 12:50:00
3:20 PM,64.4,57.2,77,29.86,5.0,West,4.6,-,N/A,,Mostly Cloudy,270,2013-04-27 13:20:00
3:50 PM,64.4,57.2,77,29.86,6.2,SSW,5.8,-,N/A,,Mostly Cloudy,210,2013-04-27 13:50:00
4:20 PM,62.6,57.2,82,29.86,6.2,SW,6.9,-,N/A,,Mostly Cloudy,220,2013-04-27 14:20:00
4:50 PM,64.4,57.2,77,29.83,6.2,SW,5.8,-,N/A,,Mostly Cloudy,230,2013-04-27 14:50:00
5:20 PM,64.4,57.2,77,29.83,6.2,SW,5.8,-,N/A,,Mostly Cloudy,230,2013-04-27 15:20:00
5:50 PM,68.0,57.2,68,29.83,6.2,SSW,5.8,-,N/A,,Scattered Clouds,200,2013-04-27 15:50:00
6:20 PM,68.0,55.4,64,29.83,6.2,South,4.6,-,N/A,,Scattered Clouds,180,2013-04-27 16:20:00
6:50 PM,66.2,57.2,73,29.83,6.2,Variable,2.3,-,N/A,,Scattered Clouds,0,2013-04-27 16:50:00
7:20 PM,64.4,57.2,77,29.83,6.2,NNE,3.5,-,N/A,,Scattered Clouds,30,2013-04-27 17:20:00
7:50 PM,66.2,55.4,68,29.83,6.2,Variable,2.3,-,N/A,,Scattered Clouds,0,2013-04-27 17:50:00
8:20 PM,64.4,55.4,73,29.83,6.2,Variable,2.3,-,N/A,,Scattered Clouds,0,2013-04-27 18:20:00
8:50 PM,64.4,55.4,73,29.86,6.2,Variable,2.3,-,N/A,,Partly Cloudy,0,2013-04-27 18:50:00
9:20 PM,64.4,53.6,68,29.86,6.2,SW,3.5,-,N/A,,Partly Cloudy,230,2013-04-27 19:20:00
9:50 PM,66.2,53.6,64,29.86,6.2,SW,2.3,-,N/A,,Partly Cloudy,220,2013-04-27 19:50:00
10:20 PM,66.2,53.6,64,29.86,6.2,Variable,2.3,-,N/A,,Partly Cloudy,0,2013-04-27 20:20:00
10:50 PM,64.4,53.6,68,29.86,6.2,Variable,2.3,-,N/A,,Partly Cloudy,0,2013-04-27 20:50:00
11:20 PM,64.4,55.4,73,29.89,6.2,Variable,1.2,-,N/A,,Partly Cloudy,0,2013-04-27 21:20:00
11:50 PM,64.4,53.6,68,29.89,6.2,SSW,5.8,-,N/A,,Partly Cloudy,200,2013-04-27 21:50:00